Theta_e
323 324 324 324 325 327 331 333 332 332 335 335 333 332 332 329 330 336 338 339 340 342 344 346 346 347 349 348 347 346 347 346 345 346 347 347 346 346 346 346 347 347 347 347 346 346 347 345 345 346 347 347 347 347 347 348 348 348 348 348 348 348 349 351 351 350 350 350 349 348 347 348 348 348 348 347 347 347 347 347 347 347 345 342 339 335
323 324 323 324 325 326 329 330 331 331 332 333 331 333 332 330 331 335 338 339 339 342 344 346 346 346 348 347 347 347 346 346 345 346 347 347 347 346 346 345 345 345 346 347 346 347 348 347 345 346 347 347 347 347 347 348 348 348 349 349 348 348 348 350 349 349 349 349 348 347 346 346 346 347 347 346 346 347 348 346 345 344 341 337 336 335
323 323 323 323 324 325 327 329 330 331 333 332 332 333 331 333 335 333 338 340 339 343 345 346 346 346 347 346 345 346 346 346 346 347 348 348 348 347 346 346 345 347 348 348 348 348 349 348 347 347 348 349 347 347 348 348 348 349 349 349 349 348 348 348 348 348 348 348 347 346 346 346 346 347 346 346 347 346 345 343 341 340 338 336 336 335
321 324 325 322 323 328 329 330 332 331 331 331 332 331 331 336 334 330 335 338 340 343 343 347 348 346 346 346 346 345 345 347 346 346 348 348 348 348 347 347 346 348 350 349 349 349 349 349 348 348 349 350 349 348 349 349 349 349 350 349 349 348 347 347 347 347 347 347 345 345 345 346 347 347 346 344 343 344 343 341 340 338 337 337 335 333
321 325 325 322 325 329 327 330 332 331 331 331 331 330 332 335 333 333 334 337 344 344 342 347 346 346 350 348 347 345 344 346 346 345 347 348 349 348 348 347 347 349 350 350 350 350 350 349 349 350 350 349 348 348 349 350 350 349 349 349 349 348 346 347 346 345 345 344 344 344 345 347 348 347 344 342 341 342 342 340 339 338 338 337 335 334
322 323 324 324 327 328 327 329 330 331 331 329 330 332 333 334 335 337 335 336 340 338 341 344 339 344 353 349 347 347 345 346 345 344 345 347 349 349 349 348 347 348 349 349 350 351 351 350 349 350 350 349 347 347 349 350 349 348 348 348 349 348 346 346 345 343 343 343 342 343 344 344 344 342 340 339 340 341 341 340 338 338 338 336 335 335
324 323 323 326 328 329 328 328 329 333 328 326 333 335 331 333 335 336 335 335 333 334 341 342 338 343 347 344 346 347 346 347 345 344 344 345 348 349 349 349 348 348 349 350 351 352 351 350 350 350 350 348 348 347 348 350 349 348 348 348 350 348 345 344 342 341 342 341 340 340 341 339 339 340 339 338 339 340 340 339 338 337 336 335 334 333
325 324 324 326 327 329 330 327 330 333 328 328 337 335 332 332 332 334 335 334 334 338 341 341 343 344 340 341 345 346 346 347 346 345 344 343 346 348 349 349 349 348 350 351 352 352 350 349 350 350 349 349 349 349 350 350 350 349 349 349 349 346 343 341 340 340 341 339 336 335 336 337 339 340 340 340 340 339 339 338 338 336 334 332 331 332
325 325 325 325 325 326 329 330 331 331 330 333 335 332 331 330 330 334 334 332 336 339 337 339 341 340 343 349 347 344 346 347 346 346 344 343 344 347 348 349 349 349 350 352 351 351 350 349 349 349 350 350 351 352 352 352 351 351 350 348 346 344 340 339 338 338 338 335 334 333 333 335 338 339 340 340 339 339 339 338 337 335 332 330 330 332
325 324 324 325 324 324 328 331 330 330 331 332 331 328 329 331 330 333 335 334 334 335 334 337 335 334 343 351 344 341 344 344 346 346 343 343 344 345 347 348 349 349 350 351 351 351 350 350 349 350 351 352 352 353 353 352 351 350 348 345 343 341 338 338 338 337 335 332 332 333 332 334 336 337 338 338 338 338 338 337 336 333 328 327 331 332
324 324 325 326 325 325 327 328 326 329 330 329 330 326 327 337 339 339 345 339 331 332 334 335 335 332 336 342 341 340 342 343 344 345 343 343 343 345 347 347 349 350 350 351 352 351 351 351 351 351 352 353 353 354 353 352 350 349 346 341 339 338 336 336 336 334 331 329 329 329 329 331 332 333 332 332 333 335 336 336 333 327 325 328 332 332
323 323 325 326 326 326 327 327 326 328 328 327 331 327 324 336 341 337 339 332 326 331 335 334 335 332 331 339 343 341 341 342 342 344 345 343 343 345 346 347 349 349 350 352 352 352 353 352 353 353 353 354 354 354 353 352 350 348 344 338 337 336 334 334 333 330 329 328 327 327 326 327 326 326 325 323 325 328 329 328 325 323 325 329 329 327
322 322 325 323 325 327 326 328 327 327 328 326 331 327 321 327 330 327 329 328 326 331 334 333 333 332 332 339 344 342 340 341 340 342 343 342 343 344 346 347 348 350 351 352 352 353 353 353 354 354 354 355 355 353 352 351 349 345 340 336 335 335 332 331 331 328 327 327 325 325 324 323 321 320 318 317 319 320 320 320 320 320 323 323 323 322
319 321 323 322 324 326 326 326 324 327 331 326 327 326 320 323 322 322 328 327 325 329 329 329 334 333 333 339 344 343 340 339 339 339 341 341 343 344 346 346 347 350 351 352 352 352 353 353 353 354 354 354 354 352 350 350 347 341 337 335 334 333 331 330 329 328 327 326 325 324 323 321 319 318 316 316 316 316 317 317 317 316 317 318 319 321
317 318 323 323 323 325 328 327 325 332 334 328 332 330 324 327 327 323 327 325 323 327 325 326 335 333 330 340 348 341 337 340 338 338 340 340 342 343 345 346 347 349 351 352 352 352 352 353 353 354 354 353 352 350 348 346 343 338 334 333 331 330 329 328 328 328 327 326 325 325 324 321 319 318 317 316 315 316 315 315 315 315 316 317 318 318
316 318 327 326 324 325 327 327 327 330 329 326 333 329 323 331 333 325 327 331 328 324 324 327 336 341 338 343 350 342 337 340 339 338 339 339 342 343 344 346 346 348 350 352 352 352 352 353 354 354 353 352 351 349 347 344 340 336 333 331 329 326 327 327 327 327 327 326 326 325 324 321 320 319 317 316 315 315 315 315 316 316 316 317 317 317
317 320 331 326 324 327 325 328 328 326 327 328 326 325 326 332 332 325 325 333 328 322 328 329 330 338 337 337 350 348 341 342 342 340 339 338 341 343 344 345 346 347 349 350 352 351 352 353 354 354 352 351 350 348 347 343 338 334 332 331 328 326 326 327 328 328 327 327 327 326 324 321 320 320 318 316 315 315 315 315 316 316 317 317 317 316
322 323 332 328 324 327 324 325 328 326 330 330 322 326 330 328 333 334 327 328 326 324 331 329 325 330 330 335 352 352 346 348 346 342 340 339 341 342 344 345 345 347 348 349 350 350 351 352 352 353 352 350 348 346 344 342 339 334 331 330 329 326 326 326 327 328 328 328 328 327 324 321 321 320 319 317 316 315 315 316 317 317 317 317 318 318
325 322 331 333 326 327 326 324 325 325 326 327 324 328 329 323 327 331 326 325 325 324 329 329 329 332 333 342 350 346 353 354 344 344 344 341 342 342 343 345 344 347 348 349 350 350 351 352 352 352 352 351 349 346 344 343 341 337 333 331 330 327 326 326 328 329 329 329 330 329 326 322 321 321 319 318 316 315 316 316 317 317 317 319 320 320
326 320 325 333 328 326 327 323 321 323 325 326 326 326 328 328 328 326 325 326 325 326 330 330 327 331 342 358 355 346 359 354 343 346 345 341 342 341 343 345 344 346 348 349 350 350 351 352 352 351 351 351 349 346 344 343 342 340 335 333 332 330 330 331 331 331 331 331 333 334 330 325 323 322 320 319 318 316 316 316 317 317 319 322 323 323
327 322 320 328 329 324 326 325 322 324 325 324 324 323 324 326 328 327 327 328 327 330 334 330 326 337 356 366 359 350 352 347 343 345 343 340 341 341 342 344 343 345 346 347 349 349 350 351 351 352 351 351 350 349 347 345 344 342 339 336 334 333 334 334 333 333 333 334 337 337 333 327 324 322 322 322 320 317 316 317 317 318 321 324 325 325
326 325 320 321 323 321 325 331 328 326 326 325 324 325 325 324 326 324 323 326 329 330 334 331 323 337 362 363 358 355 349 344 343 342 341 340 339 341 343 342 343 345 345 346 347 347 349 350 351 351 352 351 352 351 349 346 343 343 342 339 336 335 335 334 334 333 333 336 341 340 335 329 324 323 324 326 324 319 316 317 317 319 324 325 326 326
331 333 323 318 322 324 326 329 327 325 326 327 326 326 329 330 328 322 321 326 327 325 332 332 323 335 366 371 366 360 348 342 340 338 340 340 339 341 342 342 343 344 343 345 345 345 348 349 349 351 351 352 351 350 349 347 344 342 341 340 339 338 336 335 336 337 338 340 342 342 339 333 326 324 327 328 327 321 317 317 318 320 324 325 326 328
331 332 323 319 324 327 327 329 329 327 325 325 327 327 327 330 329 328 333 334 328 325 329 327 324 340 374 376 363 350 340 336 337 338 339 338 339 341 341 342 343 342 343 344 343 345 346 347 349 349 350 351 350 350 350 348 346 344 342 342 341 340 337 338 342 344 345 345 344 346 345 337 328 327 330 330 328 322 317 318 318 321 324 325 327 328
326 328 325 320 320 322 324 325 326 327 326 327 331 329 325 330 331 333 339 333 326 329 331 326 327 344 369 367 349 338 338 338 337 338 339 338 339 340 341 342 342 342 344 343 343 345 345 346 347 347 348 350 349 350 350 349 347 346 345 345 343 341 341 344 347 348 348 349 349 349 347 338 330 329 331 330 328 323 319 318 318 321 324 325 327 328
327 332 327 320 318 319 320 323 325 328 329 330 333 328 326 330 327 329 333 325 323 330 331 331 335 344 356 352 337 335 339 340 338 336 337 339 339 340 341 341 342 342 343 343 344 344 344 345 346 345 346 347 347 349 349 349 349 347 346 347 346 345 346 347 349 350 350 351 350 346 343 340 332 327 326 328 327 322 319 319 319 321 324 325 327 328
338 338 327 323 322 320 323 331 337 335 328 325 327 326 327 328 327 334 332 324 329 333 331 340 345 337 339 343 339 340 339 339 341 337 336 338 338 339 341 340 342 342 342 343 343 343 344 344 344 345 345 345 346 347 347 348 348 347 347 347 347 348 348 349 351 352 351 350 347 342 340 339 333 324 323 330 330 324 321 320 320 322 324 326 328 328
338 332 325 329 327 323 327 334 337 333 326 323 325 326 327 326 327 331 328 329 338 331 327 347 354 334 333 343 343 342 339 339 342 338 334 338 338 339 341 340 341 342 341 343 342 342 343 343 343 345 344 345 346 346 347 347 347 348 348 347 348 349 350 352 352 352 350 348 346 343 340 337 332 324 323 332 333 327 324 324 323 324 324 327 329 327
333 327 325 328 326 325 327 327 329 330 328 326 326 326 326 326 327 327 328 337 342 329 327 350 354 337 336 342 340 340 339 337 339 336 335 338 338 339 340 339 340 341 341 342 342 342 343 343 343 343 343 344 345 345 347 347 347 349 348 348 350 350 351 353 352 352 350 348 347 346 341 338 332 324 323 329 328 326 328 328 325 325 325 327 329 325
328 329 333 326 322 326 326 325 326 326 326 326 326 327 326 326 327 325 330 338 337 332 338 349 350 342 337 336 336 336 333 331 333 334 335 337 338 338 339 339 340 341 341 342 342 342 343 342 342 342 343 344 344 345 346 346 347 348 348 349 350 350 353 353 352 352 351 349 348 346 340 335 330 324 323 325 325 328 332 330 325 323 325 328 328 323
325 335 343 330 322 324 324 326 327 325 326 325 324 328 326 325 326 325 330 335 331 333 343 344 343 342 338 339 339 330 328 332 333 333 335 337 339 339 339 340 341 341 342 342 342 342 342 343 343 343 344 343 344 345 345 346 347 347 348 349 349 351 353 353 352 352 351 348 345 342 336 332 330 327 324 325 329 332 333 331 327 323 324 328 325 322
331 338 341 329 321 322 324 325 326 326 326 323 323 327 325 325 328 329 335 339 334 338 345 340 337 337 340 347 343 332 332 336 334 332 334 336 339 339 340 341 341 341 342 341 342 342 342 342 343 343 343 343 344 345 345 346 347 347 348 349 350 352 352 352 353 352 350 347 343 341 338 334 332 329 326 327 332 332 331 332 327 322 324 327 323 322
339 336 336 330 322 322 327 326 327 326 322 323 332 336 332 333 335 335 341 342 341 348 350 341 338 340 343 348 345 339 340 339 333 331 332 334 337 339 340 341 341 341 342 341 342 341 340 341 342 342 343 343 345 346 345 347 347 347 348 349 349 351 351 352 352 351 349 347 343 342 342 338 332 329 327 329 332 333 332 331 325 322 326 326 324 325
342 337 336 332 323 323 330 330 326 322 321 331 347 345 336 337 337 336 338 338 341 348 348 342 343 346 345 345 344 344 343 337 333 332 333 334 337 338 340 341 340 340 341 341 341 341 340 340 339 338 338 339 340 341 342 344 346 347 348 348 349 351 351 351 352 351 349 347 343 343 344 340 334 330 329 329 330 332 333 327 322 323 326 326 327 328
340 337 339 340 331 329 334 329 321 320 328 344 350 340 335 336 336 338 339 338 340 344 345 344 345 346 345 340 338 337 336 334 333 334 334 336 336 337 339 339 340 341 340 340 341 339 337 336 335 334 334 335 335 334 335 338 341 345 347 349 349 350 350 350 351 350 348 344 343 343 344 341 337 333 331 331 332 334 333 326 321 322 325 328 331 330
338 338 344 346 334 329 329 324 321 325 337 347 342 335 338 338 336 339 337 335 339 341 343 344 341 342 342 334 331 333 333 333 334 334 334 336 335 336 338 337 338 339 338 337 336 334 333 333 333 334 335 336 334 333 333 334 337 341 345 348 350 350 351 351 350 349 347 345 344 343 342 341 338 334 333 334 335 335 333 326 321 322 327 332 334 332
342 344 348 340 331 335 334 327 327 331 335 341 340 335 336 334 335 338 336 334 339 340 340 341 338 339 339 332 330 332 332 333 335 334 333 333 333 334 335 334 335 334 333 333 332 332 333 334 334 336 337 337 334 333 334 335 337 341 345 348 350 350 350 350 350 349 348 346 346 344 341 340 337 334 333 334 335 334 330 323 321 326 331 334 334 333
339 343 345 335 331 341 338 326 329 331 329 337 346 341 335 329 332 339 339 338 343 341 337 339 338 338 338 332 329 330 331 336 338 335 332 332 332 332 332 332 333 332 331 332 332 333 334 334 335 336 338 337 334 334 335 336 338 342 346 348 350 350 350 350 349 349 348 347 346 343 341 339 337 334 332 333 335 335 330 324 323 329 332 333 333 332
335 341 351 346 340 343 339 330 333 333 332 340 346 341 335 330 332 339 336 335 343 340 333 335 337 335 334 331 329 331 335 339 339 335 332 332 332 332 333 333 332 332 331 333 334 335 336 337 337 337 337 336 334 334 335 336 338 341 344 347 348 349 349 349 349 349 348 347 346 343 341 340 337 333 332 333 335 336 332 326 325 328 331 333 334 332
344 352 356 347 341 345 346 337 332 334 340 345 342 336 333 332 336 339 332 332 341 338 330 333 336 334 331 328 329 335 339 340 339 336 334 333 332 331 332 332 332 332 333 335 337 338 338 337 336 335 335 334 335 337 338 337 337 338 340 344 347 348 348 348 348 348 347 346 345 342 341 340 339 336 333 333 335 336 335 331 329 331 334 335 335 334
349 353 350 345 342 343 342 334 329 335 343 342 337 333 331 334 342 342 335 336 339 334 330 332 332 331 331 329 331 335 336 335 337 338 336 335 335 334 335 335 336 337 337 337 338 337 335 335 333 334 336 337 339 339 338 336 336 336 339 342 345 347 348 348 347 346 345 344 343 341 340 340 341 338 334 332 334 336 337 336 334 335 336 336 335 334
345 345 344 346 344 341 343 340 334 337 341 334 332 332 333 337 343 340 337 338 334 331 333 333 331 333 333 333 334 335 335 334 336 337 337 337 337 338 338 337 337 337 336 336 336 335 334 336 336 337 339 341 341 339 337 336 335 336 340 343 346 347 347 346 346 344 343 343 342 340 340 340 341 338 333 332 334 336 337 338 337 336 336 335 335 335
345 341 339 340 338 340 346 343 333 336 338 332 334 342 342 341 340 335 334 335 333 333 333 331 332 334 333 334 336 336 335 335 335 335 335 335 336 336 335 335 335 334 334 334 335 335 336 338 339 340 342 342 340 338 337 337 338 341 345 346 346 346 346 345 344 343 342 341 340 340 340 340 340 338 334 333 335 336 337 338 337 336 335 335 336 337
344 345 343 340 338 341 346 343 337 339 337 331 336 344 341 336 335 333 333 333 334 336 334 333 334 334 333 335 337 336 335 335 335 336 336 335 335 335 335 335 335 336 336 336 337 337 338 340 341 343 344 342 340 339 340 341 343 345 346 346 346 345 345 344 343 342 341 340 339 339 339 339 340 338 336 336 336 335 336 336 336 336 336 335 336 337
342 346 344 340 340 340 341 342 341 337 333 330 332 335 333 333 334 335 335 336 336 337 336 336 336 335 335 335 335 335 337 336 335 336 335 335 336 336 336 336 336 336 337 337 339 341 342 344 346 346 345 343 341 342 342 343 345 345 345 345 344 343 342 342 342 341 340 339 338 338 338 338 338 337 336 336 335 334 333 333 334 336 337 337 337 338
336 339 342 342 341 338 335 335 335 331 329 329 330 330 331 332 332 334 337 337 336 336 335 335 335 335 335 334 334 335 335 333 333 332 331 332 333 333 334 334 334 335 336 336 339 341 342 345 347 346 345 343 342 343 344 344 345 345 344 344 343 341 340 340 340 339 339 338 338 337 337 337 336 335 335 335 335 334 332 333 335 337 338 338 339 339
334 335 343 343 340 339 339 339 336 331 329 328 327 327 329 328 327 330 332 331 332 334 332 331 331 330 331 332 332 334 333 331 329 328 326 327 327 326 327 328 327 331 335 338 340 342 343 344 344 344 344 344 342 343 345 345 345 345 343 342 341 340 339 338 337 337 337 337 336 336 336 335 335 334 335 335 336 335 334 335 338 339 339 338 338 338
336 335 340 341 339 341 342 338 334 329 328 328 326 325 326 325 326 327 326 326 328 328 326 325 325 325 325 326 328 330 333 333 332 330 328 326 325 325 325 324 325 330 336 338 340 342 342 343 344 344 344 343 343 344 345 346 346 344 341 339 338 338 338 337 337 337 337 337 337 336 335 333 333 333 334 334 334 335 335 337 338 338 338 337 336 336
334 337 339 338 339 339 336 333 332 330 330 329 326 325 325 325 325 326 326 326 327 326 326 326 325 324 324 323 324 325 327 330 332 333 332 329 327 327 326 325 326 330 335 337 338 340 341 343 343 344 344 343 344 345 345 346 344 341 339 337 336 336 336 336 335 334 334 334 334 332 329 328 327 327 328 329 331 332 333 335 337 337 337 335 334 333
331 339 339 335 336 337 335 334 333 333 333 329 326 327 327 327 327 326 325 326 326 327 328 328 327 327 326 325 325 325 324 325 327 329 330 330 330 329 328 328 329 331 334 337 338 339 341 342 342 343 343 343 344 344 344 343 341 338 338 337 334 332 332 332 332 331 331 330 329 326 324 322 322 321 323 327 330 330 331 333 335 335 334 333 332 331
327 334 335 333 336 337 335 333 330 329 330 327 325 326 327 326 327 325 323 324 324 324 325 325 325 326 326 325 325 325 325 325 325 325 326 329 331 333 331 330 329 330 333 336 338 339 340 340 341 342 342 343 343 341 340 339 338 338 338 336 333 332 332 332 332 331 330 328 325 323 322 322 323 324 325 328 330 331 332 333 333 333 333 332 331 329
Wind_Speed
11 5 3 6 6 7 8 9 9 7 6 6 2 3 6 9 10 11 9 11 14 8 5 9 10 12 16 16 18 27 29 24 24 24 26 30 32 34 36 36 38 38 37 35 33 31 29 30 28 26 26 26 26 24 23 23 23 21 18 17 16 15 15 15 17 18 18 19 20 20 20 19 17 16 16 15 14 13 12 11 11 12 10 5 5 5
9 7 7 9 9 9 9 8 6 4 4 4 2 3 4 5 6 5 8 12 12 6 4 5 8 12 15 16 18 23 22 19 24 25 26 30 32 35 36 37 39 38 37 35 34 33 30 31 31 28 28 27 28 27 25 24 24 22 20 19 18 16 16 17 17 18 19 19 18 18 17 16 16 16 15 13 12 12 11 11 11 10 7 6 7 7
4 6 10 10 8 8 7 5 6 6 6 4 2 3 3 4 1 1 5 13 10 4 4 7 9 9 11 14 15 20 21 22 29 31 31 33 32 32 34 36 38 37 36 36 36 35 33 32 33 31 30 29 28 27 26 25 24 23 22 20 19 18 18 18 18 19 18 17 16 15 14 13 13 14 13 11 11 11 11 11 11 10 9 10 10 10
4 6 10 8 7 7 6 4 7 5 4 4 3 4 3 3 3 2 4 11 6 2 5 7 4 3 5 8 9 17 23 22 28 33 33 35 35 36 38 38 38 37 36 37 37 37 34 34 35 35 33 30 29 29 28 27 26 25 24 22 21 20 19 19 19 18 17 16 15 14 13 12 12 12 12 12 12 12 13 13 12 11 12 12 12 12
5 7 6 5 8 9 7 5 7 5 4 4 5 5 3 4 5 3 4 9 3 4 5 8 4 3 4 7 7 12 17 17 22 27 27 31 36 38 38 38 39 39 39 39 39 39 36 36 37 37 34 32 31 31 31 29 28 27 26 23 21 20 20 20 19 18 17 16 15 15 15 15 15 15 15 15 14 14 15 14 14 14 14 14 13 13
7 10 6 4 6 8 8 6 6 7 4 3 4 8 7 7 6 4 8 10 5 2 4 8 4 5 4 8 9 8 10 13 15 19 22 28 32 32 31 34 37 39 40 40 41 40 39 38 38 37 36 34 33 32 31 29 28 27 26 25 22 21 21 20 20 19 18 17 17 17 18 18 18 17 17 16 15 15 16 16 15 15 14 14 13 13
5 8 7 5 6 7 7 7 6 8 5 3 6 8 9 8 7 9 12 10 5 4 7 9 6 4 3 8 11 8 9 12 11 13 20 26 29 30 32 34 36 38 39 40 40 40 40 39 39 39 38 36 34 32 31 29 28 27 26 25 24 23 22 21 21 20 19 18 18 19 18 18 17 16 16 15 14 14 15 15 15 13 12 12 12 12
5 8 7 7 7 6 6 5 6 9 7 4 6 7 8 8 8 11 12 9 5 3 3 5 3 2 3 8 9 9 9 11 11 12 16 24 29 31 34 36 37 39 40 41 41 41 41 41 41 41 39 38 35 32 31 31 29 28 26 25 25 25 23 22 22 21 21 21 19 19 18 17 16 15 16 15 13 13 14 14 13 12 11 11 10 10
5 9 9 8 7 5 6 6 7 10 6 7 7 7 7 9 10 10 10 8 5 5 4 6 3 3 4 5 5 9 10 12 15 16 16 22 30 32 35 38 39 41 42 42 43 42 42 43 43 42 40 38 35 33 32 31 30 28 26 26 27 26 25 24 24 24 23 22 20 19 18 16 15 15 16 15 14 14 15 15 14 13 12 11 11 11
3 8 10 8 6 5 6 6 7 10 7 6 4 4 3 4 7 7 7 6 4 5 7 11 9 4 4 3 5 7 8 12 16 17 17 23 31 34 36 40 40 41 42 42 44 44 43 43 43 42 40 37 35 33 32 30 30 29 28 28 29 28 27 26 26 26 24 22 21 20 18 16 16 17 17 16 16 17 17 16 15 15 14 13 12 12
5 6 7 6 6 7 8 7 9 12 10 4 2 2 1 3 2 0 1 4 5 4 8 14 16 9 4 4 5 8 12 18 17 14 15 20 28 34 38 40 41 41 42 43 44 44 44 43 42 42 40 38 36 34 33 32 31 31 30 30 30 29 29 29 29 27 25 23 21 20 17 16 17 18 18 17 18 19 19 19 18 17 16 14 13 13
5 7 5 3 7 9 7 6 8 10 9 4 2 3 1 4 4 4 4 3 5 5 7 13 15 10 7 5 7 13 18 20 18 15 16 19 27 36 38 40 41 42 43 44 44 44 43 43 43 43 42 40 38 36 35 34 33 33 33 32 32 32 31 31 30 28 26 24 22 20 18 17 17 16 16 16 17 19 20 19 18 17 16 15 15 14
5 7 5 4 7 9 7 4 4 5 5 5 4 4 3 3 2 0 2 1 4 6 6 11 13 8 7 7 10 17 19 18 18 21 23 25 31 37 38 40 41 42 43 43 44 45 45 46 46 46 44 42 40 38 37 35 35 35 35 35 35 35 34 33 32 30 28 26 23 21 19 17 16 15 15 15 16 18 18 18 17 17 16 16 15 14
4 6 7 5 6 8 9 5 4 4 4 6 6 5 6 3 2 3 3 1 3 6 5 9 12 5 4 5 10 16 21 25 28 32 34 35 37 39 41 43 41 41 43 44 45 46 47 48 48 47 46 44 42 40 38 37 37 37 37 37 37 37 36 35 34 31 29 27 25 22 20 18 16 15 15 16 17 18 17 17 17 16 16 15 15 14
6 6 8 8 4 6 9 7 7 5 4 6 5 6 6 5 5 4 4 4 5 5 2 3 7 6 4 6 10 17 26 32 36 38 35 31 34 38 40 41 40 40 42 44 45 47 48 49 48 47 46 45 43 41 40 39 39 39 39 39 40 39 39 37 36 34 32 29 27 24 22 19 17 16 16 17 18 18 17 17 17 17 16 15 14 13
6 7 7 7 7 7 7 6 8 6 4 4 4 5 5 7 6 3 4 6 5 2 0 2 4 5 5 6 5 9 20 23 26 30 25 21 25 31 33 35 38 40 42 43 46 48 49 47 46 47 46 45 44 42 42 42 42 42 42 42 42 41 41 39 38 36 33 31 28 26 24 21 19 17 18 19 19 17 17 17 17 17 15 14 14 13
5 6 6 6 8 9 10 8 8 8 5 2 4 4 5 6 7 3 3 1 3 3 2 2 4 4 3 5 6 2 9 11 13 19 20 21 25 28 31 34 38 41 43 45 48 50 50 47 47 47 46 46 45 44 45 44 44 44 44 44 44 43 42 41 39 37 35 32 30 28 26 24 21 20 20 20 19 17 17 17 17 16 14 13 13 12
5 4 7 7 8 12 15 13 8 9 9 4 5 7 4 2 3 3 2 1 3 3 4 2 5 4 2 4 5 3 5 10 12 15 17 19 23 27 32 37 40 43 44 46 49 50 48 47 48 48 48 47 46 46 47 46 46 45 45 46 46 45 44 43 42 39 37 35 33 31 28 26 24 22 21 20 18 17 17 17 17 15 14 12 11 11
4 2 7 6 9 8 9 9 8 9 9 5 4 5 5 2 1 1 3 3 2 3 3 3 3 4 4 5 4 2 8 10 11 12 12 15 21 28 33 38 41 42 42 44 46 47 46 46 47 48 48 48 47 47 47 47 47 46 46 47 47 47 46 44 43 41 39 37 35 33 30 27 25 24 22 20 18 18 18 17 16 14 12 11 11 11
4 4 6 5 6 5 3 5 7 9 6 1 1 3 3 3 5 4 3 4 4 3 3 3 3 3 6 6 7 9 11 11 11 11 12 17 26 33 35 37 39 39 40 43 45 47 48 47 48 49 49 49 48 48 48 48 48 48 48 48 48 47 46 45 44 43 41 39 37 34 30 28 27 26 23 21 20 19 18 16 15 13 12 11 11 11
3 4 5 6 4 3 3 5 8 8 5 3 3 4 3 2 2 2 2 3 4 4 3 3 3 5 6 5 8 11 10 11 14 15 15 18 27 33 34 36 38 39 42 44 46 48 48 48 48 49 49 49 48 48 48 49 49 49 49 49 49 48 47 47 46 45 43 42 40 37 32 29 29 27 24 21 20 19 17 16 15 14 13 13 12 11
4 4 6 6 4 4 6 7 7 9 9 8 7 7 6 5 4 3 3 1 2 3 5 5 4 7 6 4 7 8 7 8 13 15 14 18 27 31 35 38 40 42 44 46 47 48 47 47 48 48 48 48 48 48 49 49 49 50 50 51 51 50 49 49 48 47 46 45 43 40 34 30 30 28 24 21 20 19 17 17 16 15 15 14 13 12
5 4 5 8 6 6 9 9 7 9 9 8 8 8 7 5 6 6 5 3 1 1 2 4 3 7 6 4 6 7 6 10 16 17 14 20 29 34 37 39 41 44 47 48 48 47 46 46 46 46 46 47 48 49 50 49 50 50 51 52 52 51 51 50 50 49 48 48 47 42 36 32 30 28 25 22 21 19 18 17 16 17 16 14 13 12
5 4 5 7 7 6 7 8 6 4 5 4 6 6 6 6 6 7 5 5 4 3 2 2 3 6 6 4 4 6 6 9 17 22 20 21 28 34 38 40 42 45 47 48 47 46 44 43 42 43 44 46 48 49 50 50 51 51 51 52 53 53 52 51 51 51 50 51 49 44 39 32 28 26 24 22 21 20 18 17 16 17 16 14 14 13
6 3 5 6 6 6 6 6 6 3 3 4 4 5 7 8 8 5 3 4 3 5 6 5 5 6 6 4 0 2 5 7 14 23 27 26 28 33 37 40 42 44 46 46 44 42 41 40 40 43 46 47 47 49 51 51 51 51 52 52 53 53 53 52 52 52 52 52 49 46 40 31 27 27 25 23 22 21 18 17 17 19 16 14 15 14
9 4 6 7 7 8 7 6 6 3 2 3 3 6 9 10 11 6 3 4 4 4 6 6 5 6 7 5 1 1 5 7 10 17 24 27 30 34 37 38 41 43 45 46 44 42 41 41 43 45 46 46 47 49 51 51 52 53 53 53 53 53 53 53 53 52 53 51 46 45 41 34 31 30 26 25 23 21 19 18 19 19 17 15 16 15
4 3 8 10 11 10 9 9 7 3 4 5 5 8 10 11 12 8 5 5 6 4 4 6 7 5 5 6 5 5 6 9 9 12 18 24 29 34 37 39 42 44 45 46 45 44 43 43 44 44 45 46 47 48 49 50 52 53 53 54 53 54 54 54 52 50 47 44 42 43 40 33 31 29 25 24 23 20 19 19 19 19 17 18 19 18
2 3 9 12 15 15 13 12 9 4 6 8 9 10 11 10 11 9 7 7 7 7 5 9 6 10 9 9 9 9 9 9 8 11 20 28 31 34 37 39 40 40 42 44 44 44 43 44 44 44 45 45 45 46 48 49 51 51 52 53 52 53 53 50 46 43 42 42 44 45 42 34 29 28 25 23 21 20 20 19 19 17 17 21 23 20
3 4 8 10 15 17 15 16 14 8 6 8 8 11 13 12 13 13 12 9 10 9 8 8 9 12 12 11 12 13 13 13 15 20 27 29 30 32 33 35 36 37 40 42 43 44 44 43 42 42 43 44 44 46 47 48 50 50 51 52 51 52 51 46 42 42 43 45 47 49 47 37 29 27 26 22 22 22 22 22 21 17 18 25 26 21
4 6 7 9 12 14 15 17 16 12 10 9 9 11 12 13 16 16 12 10 12 11 8 10 14 13 12 13 15 16 16 15 15 19 22 23 26 29 31 33 35 38 41 42 42 43 43 41 40 39 41 42 43 44 45 47 49 49 50 50 51 50 47 43 43 45 47 48 47 49 47 37 28 27 28 27 25 26 25 23 21 19 23 28 26 22
4 6 6 9 8 10 12 15 15 13 13 13 13 13 12 12 13 12 7 6 7 5 2 9 12 11 8 6 6 8 11 9 8 14 20 25 30 31 30 32 35 37 39 39 40 40 40 39 38 38 38 39 40 41 43 45 46 47 48 49 49 47 44 43 45 46 46 45 45 45 41 34 28 29 32 30 27 27 26 24 23 23 27 29 26 22
3 4 2 6 6 8 10 13 14 11 10 12 13 14 12 9 8 6 4 6 8 5 5 7 8 9 7 2 5 5 7 8 9 15 21 25 29 31 31 32 33 34 35 35 36 36 35 35 36 37 36 35 36 37 39 41 43 44 45 45 44 43 42 43 44 44 43 42 43 44 41 35 31 31 35 34 31 31 28 24 26 29 29 28 26 23
4 2 2 5 6 7 8 10 11 7 5 8 10 9 9 7 7 5 3 3 6 8 8 6 7 9 6 7 7 6 6 7 7 11 15 19 22 25 28 30 31 31 31 30 31 31 30 30 30 29 27 26 27 28 30 33 37 40 41 42 42 41 42 43 43 43 44 44 45 46 43 39 35 34 37 37 36 34 29 26 29 31 29 28 26 24
3 4 4 4 5 7 5 6 8 6 6 8 6 4 7 8 9 9 6 2 2 1 4 4 4 5 7 9 10 9 8 9 9 9 12 17 21 22 23 25 27 27 26 24 22 21 19 16 13 11 10 10 12 13 16 21 27 33 37 41 42 43 44 45 46 46 46 46 46 46 43 40 37 37 39 39 38 34 27 26 30 31 29 28 27 26
2 1 3 1 3 4 3 6 7 6 8 5 5 5 2 10 14 12 8 5 6 5 2 1 1 6 8 8 11 15 16 15 13 12 12 16 21 23 22 21 21 20 18 16 14 12 10 8 7 6 6 7 6 7 9 13 18 24 30 35 39 42 44 46 46 46 45 45 45 43 41 37 36 38 41 41 39 33 26 26 29 29 28 29 28 27
1 1 1 2 2 3 4 5 7 6 4 3 5 6 4 6 12 12 8 6 7 6 3 2 1 3 5 6 10 19 25 24 19 16 16 15 17 19 19 18 16 15 14 13 12 12 11 10 9 10 11 10 7 6 8 10 14 18 23 28 34 39 43 45 46 46 46 47 45 42 40 38 37 38 41 40 35 29 25 26 29 28 27 28 28 27
4 2 1 1 1 3 5 3 3 1 3 4 2 2 3 3 2 8 7 4 6 7 6 3 2 5 6 8 13 20 26 23 14 9 13 16 17 17 17 16 15 14 14 13 13 13 13 13 13 14 13 10 7 6 7 9 11 15 20 25 30 36 40 43 45 47 48 48 46 41 40 40 37 37 39 38 30 24 25 28 28 27 27 27 28 27
4 2 2 2 1 2 5 4 3 3 1 3 6 7 4 5 6 3 9 2 6 7 8 2 4 8 8 9 14 20 21 15 6 2 7 14 16 16 16 16 16 16 15 14 14 13 13 13 13 13 11 7 6 6 7 8 10 13 18 23 28 32 36 40 44 46 47 48 45 39 37 40 38 36 38 35 26 23 27 29 26 25 25 26 26 26
6 3 3 4 1 2 5 5 4 2 2 5 8 10 8 9 8 1 8 1 5 7 7 2 4 7 10 11 12 13 12 8 4 2 5 12 15 16 17 19 19 17 16 13 11 11 11 12 12 11 8 6 7 7 7 7 9 12 16 21 24 29 33 37 40 42 44 46 44 37 35 39 39 35 35 31 23 21 26 27 24 23 24 25 26 25
7 5 4 4 3 2 3 3 2 3 3 6 7 9 11 10 4 6 5 4 5 7 4 5 7 6 8 10 9 7 6 6 6 1 2 11 15 15 18 20 19 17 15 12 9 9 9 8 7 6 6 7 7 7 7 6 8 11 15 18 22 26 30 31 31 33 37 41 39 34 35 40 40 35 34 31 23 20 24 25 24 25 26 27 26 26
4 4 2 3 2 2 3 3 1 1 3 5 7 13 13 6 7 7 4 5 5 9 4 11 14 12 14 16 13 9 8 9 11 9 8 12 14 14 16 15 14 12 11 9 8 7 5 4 5 6 7 7 7 6 6 6 8 10 13 17 21 24 23 23 24 28 32 36 35 33 35 40 40 37 37 34 25 21 22 24 26 27 28 27 26 27
0 2 3 2 2 3 3 4 2 2 3 5 13 17 10 4 5 3 3 3 10 9 9 18 21 21 24 25 22 20 19 19 19 18 17 15 13 13 12 10 9 7 5 5 5 4 4 5 6 6 6 6 6 5 6 7 9 11 14 18 20 19 18 19 22 26 30 33 33 31 33 38 40 39 40 37 28 21 21 24 25 25 25 24 26 31
4 2 3 2 0 1 3 4 3 2 4 11 14 12 6 4 5 5 7 11 12 10 12 21 25 26 29 28 25 25 25 22 21 20 19 17 14 13 11 9 7 5 2 1 2 4 5 5 6 5 5 5 6 7 8 9 11 13 16 17 16 15 16 19 22 25 28 30 31 31 33 37 39 41 42 39 32 26 23 24 23 23 24 26 29 34
4 3 2 2 0 2 3 1 2 4 8 14 8 3 4 8 12 15 15 14 15 17 18 20 24 27 29 27 25 24 23 21 19 18 17 16 14 12 10 8 6 4 1 2 4 5 4 5 5 5 5 7 8 9 10 11 13 14 14 14 13 13 15 17 19 23 27 29 30 32 35 37 39 42 44 41 34 28 26 26 25 26 27 28 31 35
3 5 5 3 0 2 4 2 3 4 8 10 14 17 18 21 23 24 25 22 22 24 23 22 22 23 25 26 25 24 22 21 19 17 16 15 13 10 9 8 7 4 3 4 4 4 4 5 5 6 7 9 10 11 12 12 12 12 11 11 12 13 14 16 19 22 25 27 29 32 34 35 37 40 40 35 29 26 27 28 27 27 29 30 32 35
2 5 6 5 1 1 4 4 5 5 7 14 25 29 29 29 27 29 33 31 27 27 28 26 24 22 22 22 23 22 20 19 19 17 16 14 12 10 9 9 8 7 5 5 5 5 6 6 7 8 9 11 12 12 13 12 11 10 9 10 10 11 13 16 19 22 24 25 27 28 29 30 30 29 29 28 27 27 27 27 27 28 30 30 30 32
2 2 3 5 5 3 3 3 4 6 7 11 22 29 31 32 31 32 34 31 29 29 29 28 26 24 23 23 21 18 16 16 16 16 15 15 13 12 13 12 10 7 5 5 7 8 9 9 9 10 11 13 14 14 13 12 11 10 9 8 8 9 10 12 14 17 18 19 20 22 22 20 20 21 22 24 26 26 26 27 28 29 30 29 29 30
1 3 3 4 3 4 4 4 2 11 11 9 15 22 27 30 32 32 32 30 29 29 28 28 26 23 21 21 20 16 13 12 12 12 14 15 14 14 14 12 9 6 5 7 10 11 11 11 12 12 13 15 15 13 13 12 11 9 7 5 5 5 6 8 9 11 11 12 13 13 13 12 14 17 19 20 23 26 29 30 30 29 30 30 27 25
3 2 4 4 4 6 6 6 7 12 12 9 13 18 23 26 28 28 26 24 24 23 22 22 21 19 19 19 19 18 16 13 12 11 11 12 11 10 9 8 6 4 5 8 10 11 12 13 14 14 15 15 13 13 14 13 11 10 8 7 9 11 12 13 12 10 9 8 6 6 8 10 13 16 18 20 24 27 29 29 28 28 27 25 21 20
5 1 3 6 7 5 4 6 9 9 6 4 9 16 17 17 18 21 21 18 16 15 13 11 10 9 10 10 10 13 15 14 11 9 7 6 6 5 5 5 4 3 5 7 9 11 12 12 13 13 14 14 14 15 16 15 14 14 13 13 14 16 16 16 14 11 7 5 5 8 10 13 15 18 20 23 26 26 26 25 25 24 22 20 19 20
4 4 3 5 6 5 7 11 13 12 9 7 11 16 16 15 17 21 24 23 22 21 20 18 16 14 13 10 7 7 9 9 8 7 5 3 4 6 7 7 5 5 6 8 9 10 11 11 11 12 13 14 16 18 18 17 17 17 17 18 18 16 14 12 9 8 10 11 12 13 13 14 17 19 21 22 22 22 22 22 21 21 20 20 21 20
Wind_Direction
170 177 208 191 198 200 199 195 196 209 193 174 214 248 192 182 193 195 183 174 168 161 187 178 161 164 171 177 183 182 185 189 187 186 188 189 191 192 194 197 198 203 206 204 205 207 210 211 211 212 212 211 210 210 209 209 210 212 215 221 224 220 217 220 219 217 220 225 229 231 231 234 237 242 245 247 251 253 256 258 258 264 269 249 233 256
168 182 223 209 193 196 206 206 197 205 210 195 203 270 251 205 201 196 169 174 172 152 186 181 160 174 179 179 183 181 184 193 189 187 191 193 194 195 196 198 200 203 205 206 206 206 208 211 213 213 211 211 211 211 210 211 214 215 218 226 230 228 222 221 221 221 223 227 231 234 236 241 242 244 248 250 251 250 248 244 242 246 248 242 251 265
191 210 227 215 180 190 221 198 183 216 222 218 187 146 252 264 217 97 162 173 172 144 175 178 172 186 186 182 185 185 189 196 193 191 194 195 195 197 199 199 201 202 203 206 206 205 205 207 210 212 212 213 214 214 213 214 217 219 222 228 231 232 227 224 225 225 228 232 235 238 241 245 244 242 240 238 237 233 228 223 222 228 238 246 256 264
207 239 229 206 150 176 226 189 168 209 228 212 184 157 212 239 187 230 183 168 165 109 159 160 158 190 190 193 200 197 198 199 197 198 198 197 197 200 202 202 201 201 201 203 204 205 205 206 208 211 213 215 215 216 216 217 219 222 226 229 230 231 228 226 228 229 231 233 235 236 235 233 233 230 222 218 220 219 216 216 219 225 233 242 252 265
225 252 227 164 149 181 212 198 164 179 236 239 201 189 199 197 211 245 151 146 88 24 119 115 64 324 206 202 218 207 207 209 204 202 201 202 204 204 204 203 202 202 202 201 202 205 207 208 209 211 214 214 215 216 218 220 221 224 226 228 229 228 226 227 228 230 230 227 226 224 222 220 221 222 218 217 221 221 221 225 231 233 236 242 253 267
236 246 227 160 168 186 203 211 181 174 208 278 224 202 205 206 203 159 136 138 100 357 185 137 129 280 243 207 217 208 208 217 209 204 206 207 208 208 206 205 205 205 205 204 204 206 208 210 210 211 213 213 214 216 218 221 222 225 226 226 228 225 223 225 227 225 223 221 219 218 219 220 224 227 226 227 230 231 233 237 239 239 238 244 254 260
224 224 211 207 199 183 201 222 198 169 162 264 237 200 203 217 199 162 152 152 150 204 206 171 172 243 254 221 219 210 213 219 215 210 211 209 208 209 208 208 207 205 205 206 207 208 209 210 210 210 211 212 214 215 217 220 222 224 225 226 226 223 221 221 221 219 217 219 220 222 226 229 234 237 234 236 237 236 237 237 236 236 240 247 251 251
185 194 201 211 206 185 201 224 195 158 143 234 230 177 189 222 217 183 166 174 185 138 161 183 154 109 220 227 205 195 215 224 226 225 219 213 210 209 209 210 208 206 205 205 206 208 209 210 210 210 211 213 214 215 216 218 220 222 223 223 221 219 217 217 217 216 215 219 222 225 230 233 238 241 241 243 240 235 235 234 236 243 251 253 247 251
182 191 202 197 203 208 206 213 184 156 162 240 223 173 190 219 219 196 176 190 182 116 158 209 170 119 247 253 174 180 210 223 228 227 221 215 211 208 209 210 210 208 207 205 206 207 209 210 211 211 212 213 215 216 217 217 217 219 219 217 216 214 213 213 213 213 214 218 222 226 231 233 235 237 238 243 242 239 240 241 246 254 258 256 250 258
211 196 196 184 199 215 214 214 170 159 197 237 204 164 176 223 222 201 181 181 148 147 192 201 188 189 263 258 162 171 209 224 228 226 221 216 212 209 209 209 210 209 207 207 207 207 209 210 211 212 212 213 216 218 219 217 215 215 214 212 212 210 209 210 210 211 213 215 219 224 228 230 231 230 231 237 241 244 247 249 253 257 258 254 253 260
248 236 211 185 196 199 212 218 176 180 208 208 115 140 65 352 323 184 130 120 133 196 217 200 192 190 232 246 189 182 205 213 217 223 220 215 213 211 210 209 208 208 207 206 207 207 209 210 211 212 213 215 217 219 218 215 212 212 210 209 209 207 206 208 207 208 210 213 217 221 223 227 228 227 230 235 239 242 245 247 251 252 251 250 254 260
251 250 246 210 207 194 197 224 194 193 202 176 127 158 209 325 9 28 10 77 168 226 239 208 195 191 215 240 211 207 214 212 210 214 213 209 210 210 209 209 208 207 207 206 206 207 207 208 209 211 213 216 217 217 215 213 211 210 209 207 207 206 206 206 206 207 209 213 217 218 220 225 227 228 233 238 242 243 242 242 243 243 244 248 253 255
238 238 260 269 239 205 187 229 233 206 167 152 148 136 173 276 2 94 259 193 205 240 238 196 183 195 231 233 213 213 219 219 214 215 212 206 206 206 206 207 207 207 207 206 206 206 207 208 209 210 213 215 216 216 214 211 210 209 208 207 206 206 205 205 207 207 210 213 215 216 218 221 224 226 230 236 239 238 236 236 238 239 243 246 247 248
233 258 255 246 256 214 191 201 228 221 160 157 164 157 176 180 143 214 237 256 243 256 250 185 174 199 268 255 219 210 217 218 216 217 215 209 205 203 204 205 205 206 207 207 207 208 209 210 210 211 212 213 214 214 212 210 209 208 207 206 206 206 205 206 208 209 211 214 215 215 216 219 223 224 226 230 231 229 227 230 235 236 237 238 239 244
195 239 234 219 225 196 195 201 194 188 177 181 167 155 173 168 165 207 213 201 221 244 271 140 168 192 204 227 217 207 215 216 217 220 218 213 208 203 203 203 203 205 207 207 208 210 212 212 211 212 213 213 213 212 211 209 208 208 208 207 206 205 206 207 209 210 212 214 215 215 215 217 220 224 228 228 226 225 225 227 229 228 228 231 236 241
193 235 242 229 225 195 198 208 180 174 227 218 137 131 188 187 177 199 195 186 185 200 204 140 198 215 204 247 266 220 217 215 218 226 221 211 206 201 201 201 201 205 207 207 209 212 214 213 211 212 213 214 213 212 210 208 208 208 208 207 206 206 207 209 210 212 214 215 216 215 215 216 217 221 227 227 222 220 222 225 225 223 225 229 234 236
180 246 265 233 237 224 212 210 181 177 203 194 142 183 214 176 156 168 230 211 108 158 240 194 217 284 282 278 321 293 208 198 204 220 217 205 196 192 197 200 201 205 206 208 211 213 214 213 212 213 214 215 214 212 211 210 210 209 208 208 207 208 210 211 213 214 215 217 217 216 216 215 214 218 224 223 218 215 218 220 220 222 225 228 232 233
161 254 277 213 227 241 222 221 227 194 178 180 210 204 184 127 118 131 186 19 75 184 256 201 197 243 224 234 312 9 165 182 190 202 208 200 188 190 198 201 203 206 207 210 213 214 214 213 213 214 215 217 216 214 212 212 211 210 210 209 208 209 210 212 214 216 217 218 218 216 216 216 215 218 223 222 217 215 216 216 217 221 224 228 230 223
164 247 291 219 209 239 216 209 248 236 205 209 226 181 149 168 227 148 169 174 159 203 259 275 231 218 195 215 254 216 181 188 192 190 192 191 189 195 200 202 204 206 207 210 212 214 214 214 215 215 216 218 218 216 215 214 213 212 212 212 212 212 212 214 216 218 219 220 220 218 217 217 216 217 221 221 216 216 216 215 215 218 221 223 219 206
161 195 277 257 213 221 184 177 222 244 239 217 128 161 153 168 183 182 167 165 181 197 215 274 289 242 226 212 199 209 202 182 176 180 189 195 197 199 199 201 203 204 206 210 213 215 215 215 216 217 218 219 220 219 217 216 215 215 215 215 216 216 217 219 220 220 222 222 222 220 218 219 220 219 220 219 217 217 215 212 212 214 215 211 203 194
171 187 236 276 271 222 207 206 202 206 211 194 198 208 187 129 143 173 169 142 153 167 176 214 264 261 251 206 186 212 208 176 176 184 192 198 199 199 200 201 202 204 207 211 215 217 217 217 218 219 220 221 221 220 218 218 217 217 218 218 218 220 221 222 223 223 224 224 223 220 217 219 222 221 219 219 221 220 214 210 208 207 206 200 193 189
186 185 213 252 267 231 237 238 201 187 189 187 198 205 185 159 128 149 232 247 127 157 171 174 228 263 259 202 193 214 196 175 188 190 189 194 195 198 202 202 203 206 210 214 217 219 219 218 219 219 219 219 219 220 220 220 220 220 220 221 221 222 223 224 225 225 225 226 225 221 216 218 222 221 218 219 224 223 215 210 207 205 204 198 192 191
165 150 198 236 244 233 242 246 224 204 200 199 210 205 177 154 137 150 206 233 192 203 139 127 209 262 262 216 206 226 206 183 191 190 185 188 192 197 202 203 205 208 213 217 219 221 222 222 221 220 220 219 219 221 222 221 221 222 223 223 224 225 225 226 227 227 227 227 227 222 216 216 220 220 217 219 226 226 218 212 207 208 209 202 197 201
168 144 181 230 260 271 266 269 267 218 181 211 246 212 174 176 170 161 176 180 184 202 141 129 235 264 276 256 222 233 224 184 184 186 184 186 192 197 200 203 206 209 214 218 220 222 223 222 221 220 220 220 220 222 222 222 223 224 225 225 226 228 229 229 229 229 229 228 228 224 216 214 218 221 221 223 228 228 221 215 213 213 214 209 207 212
191 184 161 200 247 267 272 278 285 283 163 190 236 214 193 187 166 142 123 136 191 213 163 159 227 251 274 290 331 175 190 180 182 185 185 187 191 197 200 203 207 210 214 216 218 220 220 220 222 223 223 223 223 224 223 224 225 227 228 228 229 231 232 231 230 230 230 230 229 221 212 208 212 219 222 226 229 230 225 219 217 216 216 216 216 219
182 193 164 186 214 222 227 229 235 242 193 198 210 204 202 185 168 161 129 143 209 227 155 158 212 251 281 296 339 183 187 187 190 187 189 191 193 196 200 203 206 210 213 215 217 218 220 222 225 225 226 227 227 226 225 226 227 228 230 231 232 233 233 231 230 230 230 229 223 213 206 206 211 213 217 225 227 227 226 221 219 219 221 224 222 223
161 184 180 193 208 211 210 220 221 166 157 204 210 203 208 194 177 158 127 165 188 166 175 210 197 193 251 252 222 228 209 195 193 187 191 198 198 198 200 203 206 210 212 215 217 219 221 223 224 226 229 230 230 229 228 229 230 230 232 233 234 234 234 232 230 227 225 221 214 208 203 205 211 209 214 230 233 230 230 225 219 220 228 231 227 226
94 202 195 197 209 214 211 217 218 163 170 207 204 199 207 200 177 162 169 188 160 137 211 250 198 173 207 220 210 215 212 209 208 193 194 199 199 198 200 203 206 210 213 215 218 219 220 222 226 229 231 232 231 231 231 232 232 232 233 234 235 234 233 230 225 221 219 216 214 212 206 203 205 203 209 229 240 239 237 228 221 227 235 233 231 230
139 214 211 199 212 220 219 222 223 210 210 220 209 205 204 191 180 186 194 180 152 163 213 224 189 185 199 203 204 206 200 200 204 201 199 200 197 197 199 202 206 209 212 215 217 219 221 224 229 232 233 234 233 232 232 232 232 232 233 234 234 233 231 227 221 219 220 218 218 219 214 203 194 197 204 213 224 233 236 232 234 240 232 228 232 234
167 212 203 191 216 227 222 228 232 225 230 239 231 221 208 191 188 195 197 178 172 190 201 178 181 197 202 198 204 207 201 197 198 196 196 196 195 194 196 200 204 208 212 215 217 219 223 227 231 233 233 234 233 233 234 233 233 234 234 234 235 233 229 223 221 223 224 221 220 220 213 198 186 194 201 200 208 222 230 235 242 237 224 225 233 234
186 223 196 171 210 237 223 226 232 227 229 236 237 233 219 199 193 193 183 167 182 205 156 153 179 212 225 201 187 189 185 177 172 178 187 194 194 192 194 198 203 207 211 214 217 220 223 227 230 231 232 233 234 235 236 235 235 235 235 235 234 231 226 223 225 227 225 220 216 211 204 198 199 202 200 199 206 216 225 236 241 229 222 227 232 232
168 244 225 150 185 234 223 221 228 227 230 240 245 240 224 199 187 185 164 165 176 164 110 122 174 220 231 143 91 114 156 170 184 185 187 192 193 191 193 198 203 207 211 214 218 221 223 227 230 232 235 236 238 238 237 237 236 235 235 234 233 229 226 226 227 226 222 217 211 207 206 212 216 206 196 197 203 209 219 233 232 223 221 226 230 232
140 182 229 156 182 234 229 207 205 200 212 244 250 229 202 177 157 145 134 169 168 147 138 159 207 221 201 146 132 138 160 181 203 199 187 185 188 192 196 199 202 207 210 213 217 220 224 230 234 238 242 245 247 248 247 245 242 239 238 236 232 229 228 229 228 224 221 217 212 210 214 218 215 204 196 196 201 209 219 226 222 218 220 225 230 234
134 160 213 184 178 224 228 166 155 159 196 232 260 220 173 151 134 118 93 38 3 87 169 193 205 179 156 157 164 163 166 173 181 194 192 183 182 186 193 199 203 206 209 213 218 221 224 226 226 230 239 246 254 257 257 254 251 247 244 240 236 234 232 232 231 227 222 216 211 214 220 220 214 208 204 200 201 209 218 219 217 217 220 224 231 235
340 148 219 193 159 195 168 128 149 197 222 245 320 329 132 121 113 99 74 44 13 350 319 328 198 180 173 174 166 155 151 154 159 171 181 186 187 187 189 195 199 201 205 210 211 205 193 181 180 194 199 198 211 228 243 254 255 252 249 244 240 237 234 233 231 226 218 210 209 217 225 224 218 213 207 201 204 214 223 221 217 217 219 224 230 236
330 28 174 90 102 162 136 140 182 214 259 333 12 0 4 92 106 94 58 10 4 12 4 347 289 192 162 146 150 148 143 139 140 147 152 161 176 181 181 183 184 188 194 196 193 186 180 185 198 205 198 190 195 222 244 258 261 259 254 248 242 237 234 232 229 225 219 213 213 221 227 224 219 213 205 201 207 222 230 223 218 218 220 225 231 237
107 88 133 93 108 152 132 137 176 97 6 345 354 343 317 301 171 116 91 343 334 22 23 356 70 93 101 113 127 134 130 122 112 120 140 149 158 163 166 170 172 177 179 178 179 181 189 201 205 201 196 195 211 241 253 258 262 262 255 247 241 236 232 230 229 228 224 220 220 226 227 221 217 211 203 201 210 227 230 222 220 223 224 228 234 239
79 101 165 153 156 115 106 111 101 71 81 243 274 279 281 308 292 128 101 15 314 14 18 349 129 117 110 113 128 130 120 106 90 110 145 151 158 162 164 167 169 171 171 173 178 185 195 204 203 197 197 209 239 255 255 254 258 259 254 247 241 236 233 231 230 229 227 224 226 232 230 221 213 204 199 202 217 237 234 225 225 228 229 233 240 245
13 23 105 112 67 63 103 127 135 123 211 242 274 287 304 322 308 52 95 161 279 353 11 33 126 121 122 126 133 125 106 109 154 175 134 145 153 160 165 167 168 169 172 178 185 192 194 192 190 193 206 237 260 256 245 245 253 256 255 251 246 241 236 233 231 232 232 230 231 233 227 216 207 199 199 207 224 241 236 229 230 234 236 240 245 251
353 350 40 53 18 55 95 100 122 136 242 260 267 284 302 317 351 79 103 219 283 350 16 124 108 98 113 114 109 90 85 136 161 31 98 144 147 152 160 167 170 169 169 172 175 181 184 185 193 219 249 261 254 238 231 242 255 258 257 255 249 243 239 237 239 241 239 235 233 230 222 213 208 204 206 213 228 242 240 238 240 241 242 247 252 259
4 341 10 58 22 16 76 91 105 212 252 264 284 295 304 338 66 92 184 229 355 14 76 120 110 107 105 97 91 83 83 106 109 91 101 124 131 138 148 155 155 150 151 160 168 178 193 219 245 254 252 244 231 227 237 251 260 261 258 254 249 246 245 244 244 242 237 232 230 228 222 218 217 213 209 213 230 249 250 249 248 244 245 249 255 261
358 315 329 49 46 9 73 96 33 297 260 304 313 311 321 58 109 173 190 78 39 36 89 101 100 102 98 93 94 98 97 97 97 96 95 97 103 112 115 115 116 117 131 162 180 209 235 246 252 250 241 228 221 234 250 258 265 263 254 247 245 245 245 241 238 236 232 229 231 230 225 220 217 212 209 215 232 253 258 254 249 246 248 252 255 258
161 151 327 319 130 45 59 55 47 211 275 325 328 321 348 81 149 151 96 69 53 47 75 90 94 97 96 95 97 101 102 100 98 98 97 95 96 96 88 81 82 78 67 216 250 269 266 265 268 258 239 231 236 249 254 256 258 251 242 239 240 240 237 234 232 231 229 229 231 228 221 217 214 210 211 219 234 254 265 261 253 251 253 254 256 259
142 150 210 228 197 74 89 75 173 212 298 335 0 67 61 77 110 110 95 79 70 67 71 80 88 93 96 98 100 102 103 101 99 100 99 96 95 94 89 83 78 69 10 315 302 289 280 277 269 251 238 242 247 247 245 244 245 242 238 239 240 239 236 232 230 229 229 230 227 221 218 217 215 214 216 224 238 257 266 263 259 259 257 257 259 261
175 179 159 136 56 139 150 205 265 290 329 18 79 97 90 91 100 101 96 88 80 79 79 78 81 88 93 95 97 98 98 97 98 97 92 89 89 88 88 82 72 59 18 346 323 296 277 260 248 246 249 249 244 238 235 234 234 234 238 241 239 238 237 232 230 229 228 226 223 219 218 218 218 219 222 230 244 255 256 256 260 263 263 264 267 265
142 160 134 115 168 148 83 25 358 14 35 74 92 97 97 97 98 96 94 91 87 85 80 73 73 78 81 82 85 89 91 91 91 89 85 83 80 72 64 60 54 44 19 348 315 284 266 251 247 252 254 250 242 233 227 225 223 224 231 236 235 234 233 231 229 228 226 226 225 222 222 224 226 228 233 243 251 253 253 257 263 266 266 268 271 267
75 133 100 113 148 137 70 332 346 30 45 77 95 101 102 98 95 95 94 92 91 89 82 75 72 68 64 63 63 68 75 75 74 76 74 69 62 49 38 34 30 22 357 314 283 265 258 257 259 258 254 248 239 228 219 216 215 216 221 227 233 235 235 235 233 231 229 229 228 228 229 231 229 230 241 258 264 261 262 265 266 266 268 270 272 269
166 137 97 102 124 106 125 185 89 59 56 67 88 99 103 101 99 100 98 95 94 90 82 77 73 66 59 56 51 49 52 46 41 47 49 47 44 38 30 23 15 359 320 291 277 266 261 261 258 253 249 245 236 221 211 208 206 207 211 217 214 200 192 198 207 211 210 208 210 217 223 224 224 231 248 265 268 265 267 268 267 266 268 270 270 266
326 153 129 118 102 83 105 156 126 78 63 64 80 89 95 98 100 101 102 101 100 96 88 80 74 65 58 56 50 44 39 29 20 22 26 30 33 31 23 14 1 326 291 286 281 272 265 260 256 254 251 243 228 210 203 202 197 190 185 173 151 138 141 154 160 156 156 164 183 200 198 201 215 227 235 245 255 262 266 268 267 267 267 265 260 253
12 198 151 126 135 136 145 172 154 117 89 98 106 101 99 98 93 91 91 88 89 95 96 94 87 64 47 41 34 23 14 2 357 2 8 10 4 350 343 343 329 294 282 282 277 272 268 262 259 259 251 235 218 203 197 193 184 178 176 169 155 146 148 152 149 143 151 182 225 226 207 201 210 219 228 240 252 261 264 265 264 262 256 248 244 246
24 280 244 134 137 159 150 145 140 124 117 126 119 108 106 106 97 90 88 85 82 82 82 85 86 78 68 65 58 34 12 356 344 332 320 319 315 310 315 319 310 293 286 279 275 279 278 268 262 256 241 224 212 201 193 188 182 178 178 175 170 169 173 173 176 200 218 225 231 232 228 227 230 234 240 246 251 255 258 259 256 248 241 238 240 245